Location: Gro�bocka
(50.8204°N, 11.9702°E)
Time: 01:06:51
(UTC+00:00)

CZ-2C R/B - Pass Details

Date: 29 October 2020
Orbit: 703 x 909 km, 98.1° (Epoch: 23 November)

Event Time Altitude Azimuth Distance (km) Brightness Sun altitude
Rises 17:35:57 0° 160° (SSE) 3,518 6.2 -16.9°
Reaches altitude 10° 17:38:23 10° 159° (SSE) 2,571 5.5 -17.3°
Maximum altitude 17:44:08 81° 74° (ENE) 896 3.2 -18.2°
Drops below altitude 10° 17:49:43 10° 348° (NNW) 2,489 5.8 -19.1°
Sets 17:52:03 0° 347° (NNW) 3,400 6.5 -19.5°
